Location: Casa Rossa
(45.2389°N, 12.2056°E)
Time: 04:36:49
(UTC+00:00)

Cosmos 1184 Rocket - Pass Details

Date: 14 July 2020
Orbit: 408 x 421 km, 81.2° (Epoch: 11 August)

Event Time Altitude Azimuth Distance (km) Brightness Sun altitude
Exits shadow 00:49:59 34° 292° (WNW) 702 3.8 -19.9°
Drops below altitude 10° 00:52:52 10° 353° (N) 1,503 6.4 -19.7°
Sets 00:55:02 0° 3° (N) 2,375 7.8 -19.5°
